Terminal Aerodrome Forecast
Issued by NWS

Current Version | Previous Version | Graphics & Text | Print | Product List | Glossary On
Versions: 1 2 3 4 5 6 7 8 9 10 11 12 13 14 15 16 17 18 19 20 21 22 23 24 25 26 27 28 29 30 31 32 33
000
FTUS41 KRNK 011127
TAFLWB
TAF
KLWB 011127Z 0112/0212 01005KT 4SM -SN BKN005 OVC012
      TEMPO 0112/0114 1SM -SN
     FM011400 04005KT 5SM -SNPL SCT012 OVC025
     FM011600 03003KT 2SM -FZRAPL BR SCT004 OVC012
     FM012000 00000KT 1SM BR OVC004
     FM020300 26004KT 5SM BR OVC007
     FM020900 28007KT 4SM -SN SCT005 OVC012=

USA.gov is the U.S. government's official web portal to all federal, state and local government web resources and services.